Wind_Speed
20 21 19 19 22 25 22 21 27 35 45 53 59 63 63 66 67 71 73 73 74 73 78 81 84 84 83 83 84 82 82 80 77 80 75 70 70 70 70 67 66 65 69
24 25 26 26 23 20 26 28 28 27 29 36 40 38 42 50 62 72 76 76 79 77 74 70 75 74 74 75 77 80 83 84 80 68 63 61 60 60 61 59 59 59 56
35 33 33 34 32 29 27 27 29 32 32 32 33 32 33 35 37 40 43 46 48 52 54 55 55 53 53 53 50 49 48 45 43 42 42 42 45 47 49 48 50 53 56
44 47 40 34 33 33 32 35 36 33 33 38 42 42 40 40 39 37 38 39 40 40 41 41 38 37 38 42 42 43 42 41 44 43 43 43 45 49 52 54 55 58 60
40 46 46 44 38 39 39 40 42 41 42 41 38 41 44 45 46 46 45 43 42 41 42 44 46 46 48 50 49 50 49 51 53 51 54 54 55 56 59 60 62 66 68
46 45 44 49 47 45 45 46 44 49 48 46 49 48 50 46 46 53 55 54 53 52 52 53 55 55 58 56 55 57 59 61 62 62 61 61 62 62 65 67 69 72 76
50 50 53 55 55 53 51 50 49 48 50 51 56 56 56 55 54 54 53 57 55 56 56 57 57 58 59 63 65 66 67 64 65 65 63 67 69 71 72 71 73 76 79
52 51 57 60 58 60 62 57 56 58 58 59 60 59 59 55 60 61 63 60 60 63 62 62 64 67 66 67 68 68 69 70 70 73 76 77 77 76 77 77 78 80 85
57 58 60 65 65 63 61 63 63 66 63 59 63 67 66 66 67 69 64 60 59 59 59 63 66 69 71 71 74 76 76 79 79 81 82 82 79 79 85 81 83 85 88
63 63 62 61 64 68 72 72 73 74 67 64 65 68 72 71 68 64 67 67 71 71 66 68 72 76 79 81 82 82 82 85 84 83 86 86 85 85 91 93 93 94 98
66 65 68 69 71 72 74 78 79 78 75 72 72 71 73 75 76 73 73 74 77 77 75 78 82 84 85 84 86 88 88 88 92 86 81 84 87 93 94 101 102 100 102
70 69 73 76 81 81 83 84 82 82 79 76 77 76 79 83 83 81 79 78 79 82 86 89 88 83 86 86 89 92 94 78 86 88 90 93 97 100 106 107 105 107 110
74 77 83 86 86 88 91 92 91 91 90 92 89 86 85 83 85 83 82 81 82 84 89 89 95 87 90 88 83 84 84 84 81 95 100 106 106 105 105 103 107 110 113
88 87 87 89 94 95 96 96 97 98 97 95 96 92 89 86 90 90 90 89 87 91 92 96 87 90 86 84 74 75 80 83 95 100 105 111 105 110 106 106 104 105 108
94 91 96 94 97 102 104 106 108 107 108 109 110 107 99 93 101 96 91 88 101 86 73 90 89 74 90 94 72 88 89 103 104 98 103 109 113 112 120 108 105 108 111
107 106 108 107 106 106 108 110 111 109 107 106 103 100 100 100 101 110 106 97 99 91 77 91 88 69 65 83 97 104 94 93 102 109 108 112 117 117 111 111 115 117 121
110 106 105 109 108 106 106 104 105 104 101 97 93 88 85 82 89 96 83 100 89 83 93 96 84 81 84 86 95 90 94 100 102 112 106 113 115 114 116 115 119 121 126
106 105 104 101 103 98 93 94 94 93 91 89 87 82 78 76 84 86 86 88 86 78 80 88 91 85 85 85 91 96 103 106 106 111 117 121 126 125 121 122 125 129 134
91 90 88 90 93 89 86 87 86 84 81 78 79 76 71 71 85 77 76 73 71 78 81 83 86 105 104 101 107 105 107 110 115 119 124 131 132 132 127 128 130 136 133
86 86 87 87 86 80 79 79 78 79 76 74 72 70 71 68 66 69 73 77 77 80 83 88 99 93 96 110 111 115 115 117 122 127 133 132 135 130 130 132 134 136 132
80 81 83 84 81 75 74 75 76 78 77 75 77 75 70 71 75 81 82 84 85 85 87 91 94 99 108 113 116 123 124 130 133 138 137 134 136 132 130 130 130 127 126
72 72 74 76 70 66 65 67 68 71 72 73 76 73 75 79 80 86 85 88 91 91 94 96 100 105 112 118 123 126 130 132 132 128 129 126 122 122 123 122 125 119 114
67 68 69 71 70 66 66 67 69 71 73 76 76 80 84 85 89 93 95 97 98 102 106 106 107 111 115 113 115 116 113 113 116 118 119 119 117 119 116 115 113 107 101
60 61 62 64 65 65 65 66 70 73 75 78 82 84 86 92 94 96 100 104 106 112 110 105 108 112 114 111 113 117 117 118 120 115 115 115 112 111 110 105 100 97 94
55 55 56 60 63 66 67 68 72 72 76 80 81 85 87 90 93 98 101 104 109 111 110 111 114 117 120 122 119 116 113 112 110 109 110 110 105 101 99 96 92 90 86
56 56 57 58 60 63 66 69 71 73 75 79 89 90 90 94 97 98 99 100 103 104 106 111 114 110 109 108 106 104 104 105 106 105 101 97 96 92 89 87 85 81 77
Wind_Direction
288 291 295 296 289 276 267 264 261 252 243 245 250 252 255 258 260 262 264 265 267 267 268 270 272 275 276 278 279 278 278 279 279 283 285 286 287 287 289 289 289 290 289
271 277 283 288 288 288 267 268 271 265 261 260 262 259 257 259 260 261 262 265 265 267 269 268 271 273 275 276 277 275 278 278 280 282 284 284 286 286 286 287 288 286 289
270 272 277 279 282 286 287 285 277 269 269 270 269 265 267 268 270 271 272 271 271 270 270 271 273 278 280 282 282 283 285 289 289 289 286 287 289 290 290 289 289 289 289
279 278 271 270 278 287 288 286 289 289 284 278 275 272 275 272 269 272 273 274 275 275 276 275 275 276 279 286 288 287 287 288 290 293 293 290 289 292 292 290 291 292 293
273 273 272 274 274 279 282 286 287 288 286 287 291 282 278 280 278 276 273 272 273 276 277 279 281 281 280 280 283 283 286 286 287 286 288 289 289 290 291 291 292 292 292
272 268 273 272 277 279 278 282 286 282 278 284 291 289 291 288 283 279 278 277 277 277 278 278 279 280 280 279 278 280 285 287 284 286 286 284 285 283 286 290 290 290 289
276 267 259 264 268 275 277 278 281 284 284 282 287 289 289 289 289 290 285 277 276 273 274 276 278 280 283 282 280 282 282 283 285 285 283 287 289 289 291 291 292 293 293
273 269 262 265 267 269 275 274 277 280 283 282 283 284 285 282 281 288 291 291 279 275 276 277 279 281 283 283 283 284 284 285 285 285 287 290 290 291 293 292 291 292 292
271 269 260 264 268 270 273 275 281 284 283 279 280 283 282 277 280 287 290 287 281 277 279 282 285 287 287 287 287 288 287 285 284 288 288 290 289 289 290 289 289 290 290
269 269 265 267 268 273 275 278 279 284 281 278 280 280 282 282 282 284 284 280 285 287 283 285 287 288 288 288 289 292 291 291 289 290 289 288 289 292 292 291 292 293 294
270 268 268 271 272 272 271 277 277 278 280 282 283 273 275 276 279 280 280 281 283 283 285 286 289 289 288 288 288 290 292 292 290 289 281 288 288 290 291 292 294 294 293
270 271 269 268 270 271 270 273 275 276 275 277 278 273 271 273 274 275 278 280 281 279 282 286 286 287 290 288 292 291 290 290 285 287 287 290 291 292 293 295 295 296 296
271 271 271 273 275 275 278 277 276 277 278 279 277 274 275 272 271 271 273 274 274 275 280 285 283 287 291 293 290 292 289 285 281 283 282 284 286 292 292 290 289 290 293
274 275 275 276 275 276 277 278 279 278 279 278 279 277 275 273 271 272 273 274 277 277 281 282 279 293 283 283 285 293 286 284 279 276 279 281 282 289 292 291 289 291 291
272 271 272 270 269 271 272 274 274 275 275 275 275 277 274 274 276 274 274 284 276 276 275 269 278 283 271 278 282 278 275 274 276 276 279 281 282 289 288 288 290 292 293
272 273 274 274 273 273 273 273 274 274 274 274 273 272 271 271 265 274 273 264 273 275 258 257 272 263 262 268 273 278 272 270 271 274 278 280 284 287 289 291 292 293 295
273 273 273 275 276 276 276 275 272 272 273 272 272 270 268 267 266 265 266 263 268 267 260 258 259 258 262 269 269 272 266 268 271 273 276 285 289 289 291 293 296 295 295
275 276 277 277 275 272 271 272 272 272 272 272 272 270 268 262 258 264 263 260 259 256 253 252 256 269 276 273 276 279 275 274 274 276 279 285 289 291 291 293 294 295 297
274 273 272 272 271 272 272 271 271 270 270 270 269 269 265 259 259 259 257 253 251 256 256 261 260 267 272 274 273 270 271 273 274 277 281 285 290 291 291 291 293 295 299
271 270 269 269 269 270 269 268 268 267 266 262 261 263 265 257 254 256 250 252 252 254 259 260 260 259 259 260 264 267 270 271 273 277 281 286 288 289 291 292 292 297 299
273 272 271 271 272 272 269 267 265 266 266 264 257 256 255 254 247 254 254 255 256 253 254 255 256 259 259 263 266 269 273 272 275 276 282 285 287 290 294 295 298 297 296
275 273 272 272 274 272 269 269 266 266 266 266 263 258 257 253 248 250 252 253 252 256 256 256 258 260 263 267 269 270 273 275 278 282 285 288 293 295 296 296 296 296 297
277 273 271 271 271 270 269 269 267 266 265 265 266 265 259 258 258 259 258 260 260 262 265 265 267 268 271 274 276 280 282 285 287 289 292 293 294 295 295 296 295 297 298
275 272 269 268 267 266 265 266 266 266 265 265 266 267 266 262 263 264 264 267 271 271 276 276 278 280 282 282 284 285 286 288 291 291 292 293 294 294 295 296 297 298 299
275 272 269 267 265 265 266 265 263 267 267 268 270 271 271 272 272 270 270 272 272 276 278 278 280 283 283 283 285 288 287 289 290 291 294 294 294 295 296 297 298 299 299
276 275 273 270 268 267 266 267 267 267 267 265 266 270 271 272 274 275 275 276 277 277 279 279 280 282 283 285 287 288 288 290 292 291 292 294 295 295 297 298 299 298 299
Height
10584 10583 10583 10584 10583 10583 10582 10581 10579 10581 10582 10585 10586 10587 10587 10588 10588 10587 10586 10586 10584 10584 10581 10579 10578 10576 10573 10569 10565 10563 10560 10556 10558 10555 10549 10545 10540 10534 10530 10527 10524 10521 10517
10578 10576 10576 10576 10577 10578 10577 10575 10573 10573 10573 10572 10573 10574 10573 10573 10573 10572 10571 10571 10569 10566 10564 10564 10559 10558 10557 10552 10549 10545 10542 10538 10538 10539 10532 10527 10523 10519 10516 10513 10509 10505 10502
10568 10569 10567 10567 10567 10570 10570 10568 10567 10567 10567 10565 10564 10564 10563 10562 10560 10558 10557 10556 10555 10553 10549 10548 10543 10542 10538 10535 10533 10531 10527 10524 10521 10522 10520 10516 10509 10505 10502 10500 10496 10492 10488
10556 10556 10557 10557 10559 10560 10561 10560 10559 10559 10557 10557 10556 10555 10553 10553 10550 10547 10546 10544 10542 10540 10538 10535 10532 10530 10527 10524 10523 10520 10517 10515 10510 10508 10505 10504 10499 10493 10489 10486 10482 10476 10472
10549 10546 10544 10547 10548 10549 10549 10550 10550 10549 10546 10545 10545 10543 10542 10540 10537 10537 10536 10534 10531 10529 10527 10524 10522 10519 10517 10514 10513 10509 10506 10503 10500 10496 10493 10491 10486 10482 10474 10470 10466 10461 10456
10540 10541 10538 10535 10534 10535 10536 10537 10538 10536 10534 10534 10532 10532 10531 10528 10524 10523 10521 10520 10519 10516 10513 10510 10508 10505 10502 10500 10498 10496 10493 10488 10485 10481 10478 10473 10470 10467 10460 10454 10448 10444 10437
10527 10525 10526 10526 10525 10522 10521 10524 10524 10523 10523 10522 10520 10519 10517 10514 10509 10508 10506 10508 10506 10503 10500 10497 10495 10491 10487 10484 10482 10480 10476 10473 10469 10463 10460 10455 10452 10448 10441 10437 10431 10423 10417
10511 10512 10508 10510 10513 10512 10512 10511 10507 10506 10508 10506 10505 10504 10504 10501 10495 10492 10490 10491 10490 10489 10487 10483 10480 10476 10472 10468 10465 10463 10461 10456 10453 10447 10439 10435 10431 10426 10420 10416 10411 10404 10394
10495 10496 10497 10495 10494 10496 10497 10497 10493 10491 10492 10491 10489 10487 10487 10484 10483 10477 10473 10474 10473 10472 10470 10466 10462 10458 10455 10450 10445 10441 10439 10436 10434 10427 10420 10415 10410 10405 10399 10396 10389 10384 10375
10478 10478 10480 10481 10481 10480 10480 10479 10477 10477 10476 10475 10474 10471 10467 10466 10465 10460 10456 10453 10452 10452 10451 10449 10445 10440 10435 10430 10424 10421 10417 10413 10411 10407 10398 10393 10386 10383 10374 10369 10361 10355 10345
10460 10460 10460 10461 10462 10463 10463 10460 10459 10458 10458 10457 10454 10452 10450 10447 10446 10443 10438 10434 10432 10430 10429 10427 10426 10420 10413 10410 10405 10399 10394 10387 10382 10382 10376 10370 10365 10358 10351 10343 10336 10330 10322
10439 10439 10439 10439 10441 10442 10442 10442 10439 10436 10436 10437 10435 10431 10428 10427 10425 10424 10420 10415 10413 10408 10405 10404 10401 10398 10394 10388 10383 10377 10373 10366 10358 10354 10350 10344 10338 10334 10323 10316 10308 10300 10293
10416 10416 10416 10415 10415 10414 10414 10413 10412 10413 10410 10410 10411 10409 10405 10403 10403 10401 10399 10396 10391 10387 10383 10380 10376 10374 10369 10363 10359 10354 10351 10347 10342 10333 10326 10319 10314 10307 10300 10292 10284 10275 10265
10397 10396 10394 10394 10391 10388 10386 10385 10384 10383 10383 10380 10379 10380 10380 10379 10378 10378 10376 10373 10371 10367 10361 10351 10349 10348 10340 10340 10338 10335 10330 10323 10316 10308 10300 10292 10288 10280 10273 10267 10257 10249 10240
10375 10373 10370 10370 10369 10365 10361 10359 10356 10355 10354 10354 10353 10353 10352 10354 10350 10350 10354 10349 10342 10346 10341 10327 10328 10327 10320 10317 10319 10316 10307 10298 10290 10281 10275 10267 10261 10253 10247 10236 10227 10219 10211
10348 10346 10343 10341 10343 10337 10332 10329 10324 10323 10321 10319 10319 10324 10325 10324 10323 10322 10328 10322 10318 10320 10316 10308 10309 10308 10301 10300 10289 10287 10278 10270 10263 10255 10249 10242 10235 10226 10216 10208 10201 10193 10184
10318 10316 10314 10309 10306 10304 10300 10296 10291 10289 10286 10285 10286 10289 10292 10294 10292 10288 10294 10294 10292 10293 10287 10288 10282 10279 10276 10271 10265 10257 10251 10244 10237 10228 10222 10215 10207 10197 10191 10182 10173 10164 10153
10286 10284 10282 10278 10271 10268 10268 10264 10261 10260 10259 10256 10256 10259 10262 10263 10255 10257 10260 10260 10260 10259 10258 10256 10252 10247 10244 10239 10236 10231 10225 10215 10208 10200 10194 10184 10179 10171 10162 10152 10144 10134 10125
10252 10249 10248 10243 10239 10240 10240 10237 10235 10234 10233 10232 10228 10230 10233 10236 10237 10233 10232 10231 10231 10230 10227 10226 10226 10223 10219 10213 10208 10201 10195 10188 10181 10173 10165 10158 10149 10141 10132 10123 10112 10101 10092
10222 10219 10216 10214 10213 10215 10214 10211 10210 10209 10210 10209 10210 10209 10208 10208 10207 10208 10207 10208 10205 10203 10202 10201 10199 10194 10188 10183 10176 10171 10166 10160 10154 10146 10137 10129 10121 10110 10100 10090 10081 10071 10058
10194 10192 10190 10188 10189 10190 10189 10188 10187 10185 10187 10187 10187 10187 10187 10187 10186 10186 10185 10185 10182 10177 10174 10172 10170 10167 10161 10156 10153 10147 10139 10132 10123 10115 10109 10096 10091 10081 10070 10060 10050 10038 10025
10168 10167 10165 10164 10166 10167 10166 10164 10164 10163 10162 10163 10163 10161 10160 10160 10159 10158 10158 10158 10157 10153 10149 10146 10144 10140 10136 10129 10123 10115 10108 10100 10093 10086 10078 10070 10058 10047 10036 10026 10014 10006 9995
10145 10144 10142 10142 10143 10145 10144 10143 10142 10141 10140 10140 10139 10138 10136 10135 10134 10131 10131 10132 10130 10127 10125 10121 10117 10112 10106 10099 10093 10086 10077 10070 10062 10053 10043 10035 10025 10014 10003 9994 9985 9974 9962
10125 10123 10122 10121 10122 10124 10124 10123 10121 10119 10119 10119 10117 10115 10113 10111 10108 10107 10106 10102 10098 10096 10091 10085 10081 10077 10070 10064 10057 10050 10043 10036 10029 10019 10011 10004 9992 9985 9974 9966 9955 9941 9931
10107 10106 10105 10104 10103 10102 10102 10102 10102 10099 10096 10096 10093 10090 10089 10086 10082 10082 10080 10074 10070 10067 10060 10055 10049 10045 10039 10035 10028 10021 10014 10006 9998 9991 9982 9975 9964 9954 9944 9935 9925 9915 9906
10088 10087 10086 10085 10084 10083 10082 10081 10080 10078 10078 10075 10071 10066 10064 10062 10057 10055 10052 10047 10041 10036 10031 10027 10024 10018 10010 10003 9996 9989 9982 9975 9968 9963 9955 9943 9936 9926 9916 9908 9900 9892 9883